Weather History for Plymouth, MA

Change the Weather History Date:

Thursday, December 5, 2013

  Actual Average Record
Temperature  
Mean Temperature 40 °F -  
Max Temperature 55 °F 42 °F 64 °F (1982)
Min Temperature 27 °F 24 °F 8 °F (1976)
Degree Days  
Heating Degree Days 24    
Moisture  
Dew Point 44 °F    
Average Humidity 86    
Maximum Humidity 94    
Minimum Humidity 71    
Precipitation  
Precipitation 0.01 in - - ()
Sea Level Pressure  
Sea Level Pressure 30.08 in    
Wind  
Wind Speed 4 mph (South)    
Max Wind Speed 10 mph    
Max Gust Speed -    
Visibility 5 miles    
Events Fog , Rain    
Averages and records for this station are not official NWS values.
T = Trace of Precipitation, MM = Missing Value Source: NWS Daily Summary

Daily Weather History Graph

Daily Weather History Graph

Search for Another Location

Airport:

Trip Planner

Search our weather history database for the weather conditions in past years. The results will help you decide how hot, cold, wet, or windy it might be!

Date:

Astronomy

Dec. 05, 2013 Rise Set
Actual Time 6:55 AM EST 4:11 PM EST
Civil Twilight 6:24 AM EST 4:43 PM EST
Nautical Twilight 5:49 AM EST 5:17 PM EST
Astronomical Twilight 5:15 AM EST 5:51 PM EST
Moon 9:11 AM EST (12/5) 7:30 PM EST (12/5)
Length of Visible Light 10h 19m
Length of Day
9h 16m
Waxing Crescent, 10% of the Moon is Illuminated
Dec 5
Waxing Crescent
Dec 9
First Quarter
Dec 17
Full
Dec 25
Last Quarter
Jan 1
New

Hourly Weather History & Observations

Time (EST) Temp. Windchill Dew Point Humidity Pressure Visibility Wind Dir Wind Speed Gust Speed Precip Events Conditions
12:52 AM 28.9 °F - 25.0 °F 85% 30.20 in 9.0 mi Calm Calm - N/A   Clear
1:52 AM 27.0 °F - 23.0 °F 85% 30.22 in 9.0 mi Calm Calm - N/A   Clear
2:52 AM 28.9 °F - 24.1 °F 82% 30.20 in 8.0 mi Calm Calm - N/A   Clear
3:52 AM 33.1 °F - 28.9 °F 85% 30.19 in 8.0 mi Calm Calm - N/A   Scattered Clouds
4:52 AM 35.1 °F - 30.9 °F 85% 30.21 in 9.0 mi Calm Calm - N/A   Overcast
5:52 AM 39.9 °F 37.8 °F 33.1 °F 77% 30.21 in 10.0 mi East 3.5 mph - N/A   Overcast
6:52 AM 42.1 °F 38.4 °F 34.0 °F 73% 30.19 in 10.0 mi East 5.8 mph - N/A   Overcast
7:52 AM 44.1 °F 40.8 °F 36.0 °F 73% 30.19 in 10.0 mi East 5.8 mph - N/A   Overcast
8:27 AM 46.0 °F 42.5 °F 37.9 °F 73% 30.19 in 10.0 mi ESE 6.9 mph - N/A   Overcast
8:52 AM 46.0 °F 42.5 °F 39.0 °F 76% 30.19 in 10.0 mi ESE 6.9 mph - N/A   Overcast
9:20 AM 46.9 °F - 39.0 °F 74% 30.17 in 10.0 mi ESE 8.1 mph - N/A   Overcast
9:52 AM 48.9 °F - 39.9 °F 71% 30.17 in 10.0 mi ESE 6.9 mph - N/A   Overcast
10:52 AM 51.1 °F - 42.1 °F 71% 30.14 in 10.0 mi Variable 3.5 mph - N/A   Overcast
10:59 AM 51.1 °F - 42.1 °F 71% 30.13 in 10.0 mi Variable 4.6 mph - N/A   Overcast
11:52 AM 50.0 °F - 44.1 °F 80% 30.13 in 3.0 mi Calm Calm - 0.00 in Rain Light Rain
12:39 PM 50.0 °F - 46.0 °F 86% 30.09 in 7.0 mi Variable 4.6 mph - 0.01 in   Overcast
12:52 PM 50.0 °F - 46.0 °F 86% 30.08 in 9.0 mi South 5.8 mph - 0.01 in   Overcast
1:52 PM 50.0 °F - 46.0 °F 86% 30.06 in 8.0 mi SSE 6.9 mph - N/A   Overcast
2:52 PM 51.1 °F - 46.9 °F 86% 30.05 in 10.0 mi SSE 5.8 mph - N/A   Overcast
3:52 PM 51.1 °F - 48.0 °F 89% 30.04 in 2.5 mi Variable 3.5 mph - N/A   Overcast
4:14 PM 51.1 °F - 48.0 °F 89% 30.03 in 2.0 mi South 4.6 mph - N/A   Overcast
4:30 PM 51.1 °F - 48.0 °F 89% 30.03 in 3.0 mi Variable 4.6 mph - N/A   Overcast
4:52 PM 51.1 °F - 48.0 °F 89% 30.04 in 1.8 mi South 5.8 mph - N/A   Overcast
5:52 PM 51.1 °F - 48.0 °F 89% 30.03 in 1.0 mi South 5.8 mph - N/A   Overcast
6:12 PM 51.1 °F - 48.9 °F 92% 30.03 in 0.8 mi South 3.5 mph - N/A   Overcast
6:52 PM 51.1 °F - 48.9 °F 92% 30.04 in 0.5 mi SSW 3.5 mph - N/A Fog Fog
7:00 PM 51.1 °F - 48.9 °F 92% 30.04 in 0.2 mi SSW 3.5 mph - N/A Fog Fog
7:48 PM 51.8 °F - 50.0 °F 94% 30.03 in 0.5 mi South 4.6 mph - N/A Fog Fog
7:52 PM 52.0 °F - 50.0 °F 93% 30.03 in 0.5 mi South 4.6 mph - N/A Fog Fog
8:19 PM 52.0 °F - 50.0 °F 93% 30.01 in 1.0 mi South 5.8 mph - N/A   Overcast
8:49 PM 51.8 °F - 50.0 °F 94% 30.00 in 2.0 mi South 4.6 mph - N/A   Overcast
8:52 PM 52.0 °F - 50.0 °F 93% 30.00 in 2.0 mi South 4.6 mph - N/A   Overcast
9:05 PM 52.0 °F - 50.0 °F 93% 29.99 in 3.0 mi South 5.8 mph - N/A   Overcast
9:18 PM 52.0 °F - 50.0 °F 93% 30.00 in 2.0 mi SSW 5.8 mph - N/A   Overcast
9:37 PM 53.1 °F - 50.0 °F 89% 29.99 in 5.0 mi SSW 6.9 mph - N/A   Overcast
9:47 PM 53.6 °F - 50.0 °F 88% 29.99 in 1.8 mi South 4.6 mph - N/A   Overcast
9:52 PM 52.0 °F - 50.0 °F 93% 29.99 in 1.0 mi South 5.8 mph - N/A   Overcast
10:32 PM 53.1 °F - 51.1 °F 93% 29.97 in 3.0 mi South 8.1 mph - N/A   Overcast
10:52 PM 54.0 °F - 51.1 °F 90% 29.97 in 8.0 mi SSW 8.1 mph - N/A   Overcast
11:52 PM 55.0 °F - 53.1 °F 93% 29.94 in 4.0 mi SSW 10.4 mph - N/A   Overcast